FW7539 Weather Reports


time (UTC)temp
F
wind
direction
speed
knots
gust
knots
rain 1hr
in
rain 24hr
in
rain mn
in
humidity
%
barometer
mb
20260503200456 61 209 2.6 8.7 0.00 0.00 0.00 39 1016.8
20260503200018 61 237 2.6 11.3 0.00 0.00 0.00 40 1016.8
20260503195457 61 209 3.5 11.3 0.00 0.00 0.00 38 1016.8
20260503195018 61 175 2.6 9.6 0.00 0.00 0.00 40 1017.0
20260503194457 60 155 2.6 7.0 0.00 0.00 0.00 40 1017.1
20260503193957 60 162 3.5 9.6 0.00 0.00 0.00 40 1017.1
20260503193456 61 181 2.6 9.6 0.00 0.00 0.00 38 1017.3
20260503192956 62 162 1.7 7.0 0.00 0.00 0.00 44 1017.5
20260503192456 61 159 1.7 7.0 0.00 0.00 0.00 42 1017.7
20260503192018 61 160 2.6 6.1 0.00 0.00 0.00 42 1017.8
20260503191456 61 181 2.6 6.1 0.00 0.00 0.00 39 1017.7
20260503190956 61 215 2.6 10.4 0.00 0.00 0.00 39 1018.0
20260503190456 61 185 3.5 11.3 0.00 0.00 0.00 41 1018.0
20260503190018 61 158 3.5 11.3 0.00 0.00 0.00 39 1018.0
20260503185456 61 153 3.5 9.6 0.00 0.00 0.00 40 1018.1
20260503185018 61 165 3.5 9.6 0.00 0.00 0.00 37 1018.2
20260503184517 60 203 2.6 8.7 0.00 0.00 0.00 38 1018.4
20260503183956 60 206 3.5 9.6 0.00 0.00 0.00 38 1018.4
20260503183457 60 182 2.6 9.6 0.00 0.00 0.00 40 1018.6
20260503182956 60 192 2.6 8.7 0.00 0.00 0.00 40 1018.7
20260503182456 60 190 2.6 7.0 0.00 0.00 0.00 41 1018.6
20260503182017 59 187 2.6 7.0 0.00 0.00 0.00 41 1018.6
20260503181456 60 211 2.6 9.6 0.00 0.00 0.00 40 1018.7
20260503180957 59 229 3.5 9.6 0.00 0.00 0.00 38 1018.7
20260503180457 60 209 3.5 9.6 0.00 0.00 0.00 38 1018.8
20260503175956 60 159 3.5 10.4 0.00 0.00 0.00 42 1018.9
20260503175456 60 150 4.3 10.4 0.00 0.00 0.00 39 1018.7
20260503174957 60 160 4.3 9.6 0.00 0.00 0.00 39 1018.9
20260503174457 60 168 3.5 9.6 0.00 0.00 0.00 39 1019.0
20260503174017 60 156 3.5 9.6 0.00 0.00 0.00 39 1019.1
20260503173456 60 153 2.6 7.8 0.00 0.00 0.00 40 1019.2
20260503172957 60 166 2.6 10.4 0.00 0.00 0.00 41 1019.3
20260503172456 60 170 2.6 10.4 0.00 0.00 0.00 39 1019.4
20260503171957 60 171 1.7 8.7 0.00 0.00 0.00 44 1019.5
20260503171456 60 185 1.7 6.1 0.00 0.00 0.00 42 1019.6
20260503170956 60 186 2.6 7.0 0.00 0.00 0.00 42 1019.8
20260503170518 60 199 2.6 10.4 0.00 0.00 0.00 40 1020.0
20260503150957 55 194 2.6 7.8 0.00 0.00 0.00 53 1021.3
20260503150457 54 194 2.6 9.6 0.00 0.00 0.00 54 1021.3
20260503130957 47 220 1.7 7.0 0.00 0.00 0.00 63 1021.3
20260503130457 46 236 0.9 7.0 0.00 0.00 0.00 64 1021.3
20260503110457 36 241 0.0 1.7 0.00 0.00 0.00 84 1020.6
20260503090456 35 333 0.0 0.9 0.00 0.00 0.00 87 1020.1
20260503081457 35 0 0.0 0.0 0.00 0.00 0.00 88 1020.0
20260503080957 35 0 0.0 0.0 0.00 0.00 0.00 88 1020.0
20260503080457 35 0 0.0 0.0 0.00 0.00 0.00 87 1020.0
20260503072457 35 0 0.0 0.0 0.00 0.00 0.00 88 1019.9
20260503071957 35 0 0.0 0.0 0.00 0.00 0.00 87 1019.8
20260503071457 35 0 0.0 0.0 0.00 0.00 0.00 87 1019.8
20260503070957 35 0 0.0 0.0 0.00 0.00 0.00 87 1019.9
20260503070457 35 0 0.0 0.0 0.00 0.00 0.00 88 1019.8
20260503054957 34 0 0.0 0.0 0.00 0.00 0.00 87 1020.2
20260503054519 35 0 0.0 0.0 0.00 0.00 0.00 87 1020.2
20260503054018 35 0 0.0 0.0 0.00 0.00 0.00 87 1020.2
20260503053457 35 0 0.0 0.0 0.00 0.00 0.00 87 1020.2
20260503052957 35 0 0.0 0.0 0.00 0.00 0.00 86 1020.3
20260503052457 35 0 0.0 0.0 0.00 0.00 0.00 86 1020.2
20260503051957 35 0 0.0 0.0 0.00 0.00 0.00 86 1020.2
20260503051457 35 0 0.0 0.0 0.00 0.00 0.00 86 1020.2
20260503050957 35 0 0.0 0.0 0.00 0.00 0.00 86 1020.2
20260503050457 36 0 0.0 0.0 0.00 0.00 0.00 86 1020.2
20260503045958 36 0 0.0 0.0 0.00 0.00 0.00 86 1020.2
20260503045457 36 0 0.0 0.0 0.00 0.00 0.00 85 1020.2
20260503044957 36 0 0.0 0.0 0.00 0.00 0.00 85 1020.2
20260503044458 36 0 0.0 0.0 0.00 0.00 0.00 85 1020.2
20260503043958 36 0 0.0 0.0 0.00 0.00 0.00 85 1020.2
20260503043457 36 0 0.0 0.0 0.00 0.00 0.00 84 1020.2
20260503042957 36 0 0.0 0.0 0.00 0.00 0.00 84 1020.2
20260503042457 36 0 0.0 0.0 0.00 0.00 0.00 84 1020.3
20260503041957 36 0 0.0 0.0 0.00 0.00 0.00 84 1020.3
20260503041457 37 0 0.0 0.0 0.00 0.00 0.00 84 1020.2
20260503040957 37 0 0.0 0.0 0.00 0.00 0.00 83 1020.2
20260503040457 37 0 0.0 0.0 0.00 0.00 0.00 82 1020.2
20260503035957 37 0 0.0 0.0 0.00 0.00 0.00 82 1020.3
20260503035458 37 0 0.0 0.0 0.00 0.00 0.00 82 1020.3
20260503034957 37 0 0.0 0.0 0.00 0.00 0.00 81 1020.3
20260503034458 38 0 0.0 0.0 0.00 0.00 0.00 80 1020.3
20260503033957 38 0 0.0 0.0 0.00 0.00 0.00 79 1020.3
20260503033457 38 0 0.0 0.0 0.00 0.00 0.00 79 1020.3
20260503032957 38 0 0.0 0.0 0.00 0.00 0.00 79 1020.3
20260503032457 38 0 0.0 0.0 0.00 0.00 0.00 78 1020.3
20260503032018 38 0 0.0 0.0 0.00 0.00 0.00 77 1020.3
20260503031457 39 0 0.0 0.0 0.00 0.00 0.00 77 1020.3
20260503030957 39 0 0.0 0.0 0.00 0.00 0.00 76 1020.3
20260503030518 39 0 0.0 0.0 0.00 0.00 0.00 76 1020.3
20260503025957 39 0 0.0 0.0 0.00 0.00 0.00 75 1020.3
20260503025458 40 0 0.0 0.0 0.00 0.00 0.00 76 1020.3
20260503024957 40 0 0.0 0.0 0.00 0.00 0.00 75 1020.3
20260503024458 40 0 0.0 0.0 0.00 0.00 0.00 73 1020.3
20260503023957 40 0 0.0 0.0 0.00 0.00 0.00 73 1020.3
20260503023457 41 0 0.0 0.0 0.00 0.00 0.00 72 1020.2
20260503022957 41 0 0.0 0.0 0.00 0.00 0.00 71 1020.3
20260503022458 41 0 0.0 0.0 0.00 0.00 0.00 71 1020.3
20260503021958 42 0 0.0 0.0 0.00 0.00 0.00 71 1020.2
20260503021457 42 0 0.0 0.0 0.00 0.00 0.00 71 1020.1
20260503021018 42 0 0.0 0.0 0.00 0.00 0.00 70 1020.0
20260503020518 42 0 0.0 0.0 0.00 0.00 0.00 69 1020.0
20260503015957 43 0 0.0 0.0 0.00 0.00 0.00 66 1019.9
20260503015457 43 333 0.0 0.9 0.00 0.00 0.00 65 1019.9
20260503014957 44 333 0.0 0.9 0.00 0.00 0.00 66 1019.9
20260503014458 44 333 0.0 0.9 0.00 0.00 0.00 63 1019.9
20260503013958 45 333 0.0 0.9 0.00 0.00 0.00 62 1019.8
20260503013458 46 333 0.0 0.9 0.00 0.00 0.00 61 1019.7
20260503012957 46 333 0.0 0.9 0.00 0.00 0.00 59 1019.7
20260503012518 46 333 0.0 1.7 0.00 0.00 0.00 57 1019.7
20260503011957 46 334 0.0 1.7 0.00 0.00 0.00 56 1019.6
20260503011458 46 336 0.0 1.7 0.00 0.00 0.00 56 1019.6
20260503010958 47 344 0.0 1.7 0.00 0.00 0.00 57 1019.5
20260503010458 47 351 0.0 1.7 0.00 0.00 0.00 54 1019.4
20260503010019 47 354 0.9 1.7 0.00 0.00 0.00 54 1019.4
20260503005457 48 345 0.9 1.7 0.00 0.00 0.00 53 1019.4
20260503004958 48 331 0.0 1.7 0.00 0.00 0.00 52 1019.4
20260503004518 48 334 0.0 2.6 0.00 0.00 0.00 51 1019.3
20260503003957 48 337 0.0 2.6 0.00 0.00 0.00 50 1019.3
20260503003458 49 349 0.9 2.6 0.00 0.00 0.00 50 1019.3
20260503002957 49 346 0.9 4.3 0.00 0.00 0.00 50 1019.2
20260503002457 49 342 1.7 5.2 0.00 0.00 0.00 49 1019.2
20260503001958 49 352 1.7 8.7 0.00 0.00 0.00 49 1019.1
20260503001519 49 2 1.7 8.7 0.00 0.00 0.00 48 1019.1
20260503001019 50 356 1.7 4.3 0.00 0.00 0.00 48 1019.0
20260503000457 50 344 1.7 6.1 0.00 0.00 0.00 47 1018.9
20260502235957 50 357 1.7 7.8 0.00 0.00 0.00 47 1018.9
20260502235519 50 357 1.7 7.8 0.00 0.00 0.00 46 1018.8
20260502234958 51 332 1.7 4.3 0.00 0.00 0.00 47 1018.8
20260502234457 51 332 1.7 5.2 0.00 0.00 0.00 46 1018.7
20260502233957 51 357 2.6 7.0 0.00 0.00 0.00 44 1018.7
20260502233458 52 359 2.6 9.6 0.00 0.00 0.00 43 1018.7
20260502232957 52 341 2.6 9.6 0.00 0.00 0.00 43 1018.6
20260502232458 52 322 1.7 7.0 0.00 0.00 0.00 44 1018.6
20260502231957 52 341 1.7 5.2 0.00 0.00 0.00 43 1018.6
20260502231457 52 339 1.7 5.2 0.00 0.00 0.00 45 1018.6
20260502230958 52 330 1.7 7.0 0.00 0.00 0.00 44 1018.6
20260502230518 52 344 1.7 7.0 0.00 0.00 0.00 44 1018.6
20260502225957 52 360 1.7 4.3 0.00 0.00 0.00 45 1018.5
20260502225458 52 359 1.7 9.6 0.00 0.00 0.00 44 1018.6
20260502224957 52 339 2.6 9.6 0.00 0.00 0.00 44 1018.6
20260502224457 53 347 2.6 7.8 0.00 0.00 0.00 42 1018.5
20260502223958 54 3 2.6 7.8 0.00 0.00 0.00 44 1018.5
20260502223518 53 7 2.6 7.8 0.00 0.00 0.00 44 1018.4
20260502222957 53 6 1.7 7.0 0.00 0.00 0.00 43 1018.4
20260502222458 52 8 1.7 6.1 0.00 0.00 0.00 43 1018.4
20260502221957 52 10 1.7 9.6 0.00 0.00 0.00 44 1018.5
20260502221457 52 8 2.6 9.6 0.00 0.00 0.00 43 1018.4
20260502220958 52 348 2.6 8.7 0.00 0.00 0.00 43 1018.4
20260502220457 52 285 1.7 6.1 0.00 0.00 0.00 42 1018.3
20260502215958 52 288 1.7 6.1 0.00 0.00 0.00 41 1018.3
20260502215458 52 310 1.7 6.1 0.00 0.00 0.00 41 1018.3
20260502215018 53 289 1.7 6.1 0.00 0.00 0.00 41 1018.2
20260502214458 53 335 2.6 8.7 0.00 0.00 0.00 41 1018.3
20260502213958 53 329 2.6 8.7 0.00 0.00 0.00 41 1018.3
20260502213457 54 295 2.6 7.8 0.00 0.00 0.00 41 1018.3
20260502212958 54 330 3.5 8.7 0.00 0.00 0.00 39 1018.2
20260502212457 56 351 3.5 12.2 0.00 0.00 0.00 38 1018.1
20260502212018 56 348 2.6 12.2 0.00 0.00 0.00 40 1018.1
20260502211457 55 359 2.6 9.6 0.00 0.00 0.00 41 1018.0
20260502210957 54 359 2.6 9.6 0.00 0.00 0.00 42 1018.0
20260502210457 53 3 2.6 9.6 0.00 0.00 0.00 41 1018.1
20260502205957 53 4 2.6 9.6 0.00 0.00 0.00 42 1018.0
20260502205518 53 334 2.6 7.8 0.00 0.00 0.00 42 1018.1
20260502204958 53 342 2.6 8.7 0.00 0.00 0.00 41 1018.1
20260502204457 53 357 2.6 8.7 0.00 0.00 0.00 42 1018.1
20260502203957 54 317 2.6 6.1 0.00 0.00 0.00 41 1018.1
20260502203457 54 288 2.6 7.8 0.00 0.00 0.00 40 1018.2
20260502202957 55 285 2.6 7.8 0.00 0.00 0.00 39 1018.1
20260502202457 56 310 2.6 8.7 0.00 0.00 0.00 40 1018.0
20260502201958 56 318 2.6 8.7 0.00 0.00 0.00 39 1018.1
20260502201457 56 268 2.6 7.8 0.00 0.00 0.00 40 1018.3
20260502200958 55 295 2.6 6.1 0.00 0.00 0.00 42 1018.3